DB0BGL Weather Reports


Display with metric or nautical units.
time (UTC)temp
F
wind
direction
speed
MPH
gust
MPH
rain 1hr
in
rain 24hr
in
rain mn
in
humidity
%
barometer
mb
20260510183145 75 180 0.0 0.0 0.00 0.00 0.00 100
20260510181945 75 180 0.0 0.0 0.00 0.00 0.00 100
20260510180744 75 180 0.0 0.0 0.00 0.00 0.00 100
20260510175543 75 180 0.0 0.0 0.00 0.00 0.00 100
20260510174343 75 180 0.0 0.0 0.00 0.00 0.00 100
20260510173142 74 180 0.0 0.0 0.00 0.00 0.00 100
20260510171941 74 180 0.0 0.0 0.00 0.00 0.00 100
20260510170741 74 180 0.0 0.0 0.00 0.00 0.00 100
20260510165540 73 180 0.0 0.0 0.00 0.00 0.00 100
20260510164339 73 180 0.0 0.0 0.00 0.00 0.00 100
20260510163139 74 180 0.0 0.0 0.00 0.00 0.00 100
20260510161938 75 180 0.0 0.0 0.00 0.00 0.00 100
20260510160738 75 180 0.0 0.0 0.00 0.00 0.00 100
20260510155536 75 180 0.0 0.0 0.00 0.00 0.00 100
20260510153135 75 180 0.0 0.0 0.00 0.00 0.00 100
20260510152008 75 180 0.0 0.0 0.00 0.00 0.00 100
20260510151936 75 180 0.0 0.0 0.00 0.00 0.00
20260510151934 75 180 0.0 0.0 0.00 0.00 0.00 100
20260510150843 75 180 0.0 0.0 0.00 0.00 0.00 100
20260510150734 75 180 0.0 0.0 0.00 0.00 0.00 100
20260510145533 75 180 0.0 0.0 0.00 0.00 0.00 100
20260510144332 76 180 0.0 0.0 0.00 0.00 0.00 100
20260510143132 77 180 0.0 0.0 0.00 0.00 0.00 100
20260510070857 64 111 0.0 3.0 0.00 0.00 0.00 40
20260510065856 66 109 0.0 2.0 0.00 0.00 0.00 39
20260510064855 65 102 0.0 0.0 0.00 0.00 0.00 39
20260510063855 64 95 0.0 2.0 0.00 0.00 0.00 40
20260510062854 64 108 0.0 3.0 0.00 0.00 0.00 40
20260510061854 64 125 0.0 0.0 0.00 0.00 0.00 38